User: anonymous   Login
Location: Unspecified
(0.0000°N, 0.0000°E)
Time: 00:15:08
(UTC+00:00)
Language:

Tsikada - Orbit

View from above orbital plane
View from above orbital plane
View from above satellite
View from above satellite

Ground track
Ground track

The orbit data is extracted from the following two-line orbital elements,

1 23463U 95002A   17326.61640051 +.00000027 +00000-0 +12934-4 0  9998
2 23463 082.9261 168.9844 0038659 186.2820 233.7997 13.72477638143282
Epoch (UTC): 22 November 2017 14:47:37
Eccentricity: 0.0038659
inclination: 82.9261°
perigee height: 962 km
apogee height: 1019 km
right ascension of ascending node: 168.9844°
argument of perigee: 186.2820°
revolutions per day: 13.72477638
mean anomaly at epoch: 233.7997°
orbit number at epoch: 14328

The dashed part of the orbit path shows where the satellite is in the earth's shadow,  

DLR